Location: Cahas Mountain Overlook
(37.0833°N, 80.1000°W)
Time: 04:27:07
(UTC-05:00)

Transit 4A - Visible Passes

Search period start: 28 January 2022 00:00
Search period end: 07 February 2022 00:00
Orbit: 863 x 981 km, 66.8° (Epoch: 27 January)

Date Brightness Start Highest point End Pass type
(mag) Time Alt. Az. Time Alt. Az. Time Alt. Az.
28 Jan 9.8 05:45:07 10° SSE 05:50:16 31° ESE 05:55:33 10° NE visible
29 Jan 8.9 05:53:41 10° S 05:59:21 48° ESE 06:05:15 10° NE visible
30 Jan 8.1 06:02:36 10° SSW 06:08:33 74° ESE 06:14:43 10° NNE visible
31 Jan 10.6 04:29:08 10° SE 04:32:17 15° ESE 04:35:28 10° ENE visible
31 Jan 7.8 06:11:50 10° SSW 06:17:49 75° WNW 06:24:02 10° NNE visible
01 Feb 10.0 04:36:40 10° SSE 04:41:15 23° ESE 04:45:58 10° NE visible
01 Feb 8.1 06:21:20 10° SW 06:27:10 51° WNW 06:33:12 10° NNE visible
02 Feb 9.2 04:44:55 10° S 04:50:18 36° ESE 04:55:52 10° NE visible
02 Feb 8.5 06:31:10 10° WSW 06:36:37 35° NW 06:42:16 10° NNE visible
03 Feb 8.4 04:55:48 23° S 04:59:26 56° ESE 05:05:28 10° NE visible
03 Feb 8.9 06:41:19 10° WSW 06:46:10 24° NW 06:51:11 10° N visible
04 Feb 10.6 03:23:04 10° ESE 03:23:21 10° E 03:24:07 10° E visible
04 Feb 7.8 05:06:40 46° SSW 05:08:39 85° ESE 05:14:53 10° NNE visible
04 Feb 9.3 06:51:52 10° W 06:55:50 17° NW 06:59:52 10° N visible
05 Feb 10.3 03:33:26 17° E 03:33:26 17° E 03:36:09 10° ENE visible
05 Feb 7.8 05:17:01 58° WSW 05:17:57 66° WNW 05:24:09 10° NNE visible
06 Feb 10.0 03:43:29 22° ENE 03:43:29 22° ENE 03:46:22 10° NE visible
06 Feb 8.1 05:27:03 44° WNW 05:27:20 44° NW 05:33:17 10° NNE visible
